Theta_e
282 279 278 277 277 276 276 276 276 276 277 278 279 280 281 281 281 281 282 282 281 282 282 282 282 283 283 284 284 285 287 288 289 290 291 292 293 294 294 300 308 313 317
282 279 278 277 277 276 276 276 276 276 277 277 278 279 280 281 281 281 281 281 282 282 282 283 283 283 283 283 283 284 285 286 287 289 290 291 293 294 295 295 295 300 310
281 279 277 277 276 276 276 276 276 276 276 277 278 279 279 280 280 280 281 281 282 282 282 283 283 283 283 283 283 284 284 285 286 287 288 288 290 293 295 297 298 298 299
281 279 278 277 277 276 276 276 276 276 277 278 278 279 279 279 279 279 280 281 282 283 283 283 284 284 284 284 284 284 284 285 285 286 287 288 289 290 294 296 297 297 299
280 278 278 277 276 276 276 276 276 276 277 278 278 278 278 278 278 279 281 282 283 283 284 284 285 285 285 286 286 285 285 285 285 286 286 287 288 290 291 294 295 296 296
280 279 278 276 276 276 276 276 276 276 278 278 278 278 278 277 278 280 281 281 282 283 284 284 285 285 285 286 287 287 288 287 286 286 286 287 288 289 291 292 293 295 297
281 279 277 277 277 276 276 276 276 277 278 278 278 278 278 277 278 279 281 281 282 283 283 283 283 284 284 284 285 286 286 287 289 288 286 287 287 288 290 293 295 296 297
281 279 277 276 277 276 276 276 276 277 278 277 277 278 277 277 278 279 280 281 281 282 283 283 283 283 284 284 285 285 286 286 286 288 289 288 287 287 289 291 294 294 295
280 279 277 277 277 276 276 276 276 278 278 278 277 277 277 277 277 278 280 281 281 282 282 282 282 283 283 284 284 285 285 285 286 287 287 288 289 288 288 290 291 292 295
281 280 278 277 277 276 276 275 277 277 277 278 277 277 277 276 276 278 280 281 281 281 282 282 281 281 281 282 282 283 283 284 284 285 286 288 288 289 289 289 294 296 297
282 280 278 277 277 276 276 275 277 277 277 278 278 277 277 276 276 278 280 281 281 281 280 279 278 279 281 282 282 283 284 284 284 285 287 288 288 289 289 290 290 292 297
280 279 278 277 277 276 276 276 276 276 277 277 278 277 277 276 276 277 279 280 280 280 278 278 278 280 280 280 281 283 291 293 286 286 288 289 289 289 289 289 289 290 292
279 279 277 277 276 276 276 275 276 276 277 277 277 277 277 276 276 277 277 278 278 278 278 277 277 278 278 277 279 280 284 290 288 288 290 290 289 289 289 290 290 289 291
279 278 277 276 276 275 275 275 275 276 277 277 277 277 276 276 276 277 277 276 276 276 276 274 275 275 276 276 276 277 277 280 290 290 290 290 290 289 290 290 291 292 291
278 277 276 276 277 275 275 275 275 276 277 277 277 277 276 276 277 277 276 275 276 275 273 273 273 273 274 275 275 276 276 277 278 281 290 291 291 291 291 292 292 294 295
276 275 275 275 275 275 275 275 275 276 277 277 277 276 276 276 276 276 275 274 275 273 271 271 272 272 273 274 274 275 276 276 276 278 280 284 292 293 294 294 295 296 297
276 275 276 275 275 274 274 274 274 274 275 275 276 275 276 276 275 275 274 272 272 271 270 270 271 271 272 272 274 274 275 276 276 276 277 278 281 284 293 296 297 297 298
276 277 277 276 275 274 274 274 274 274 273 273 274 274 274 274 274 273 272 270 270 269 269 269 269 270 270 271 272 274 274 275 275 275 276 277 278 280 282 287 295 298 302
277 277 276 275 274 274 274 274 273 273 273 273 273 273 272 272 272 271 270 269 268 268 268 268 268 268 269 270 271 273 273 274 274 274 275 275 276 277 278 280 283 288 290
277 277 276 275 275 274 274 273 273 272 272 273 273 273 271 271 270 270 269 269 268 268 268 267 267 268 269 269 270 271 273 273 273 273 274 274 275 276 276 277 279 281 281
276 277 275 275 275 274 274 273 272 272 271 271 272 273 272 271 270 270 270 269 268 268 268 268 268 268 269 270 271 271 272 272 272 272 273 273 273 274 275 276 277 279 280
275 276 275 274 274 273 273 273 272 271 271 270 270 271 271 271 271 271 270 270 269 268 269 269 269 270 271 271 272 273 272 272 272 272 272 272 272 273 273 274 275 275 279
274 274 274 274 274 274 273 272 272 271 270 269 269 270 271 271 270 271 271 271 271 270 269 270 270 271 272 272 273 274 274 273 272 272 272 272 271 271 272 273 273 274 274
274 274 274 273 273 273 272 272 271 271 270 269 269 270 271 271 271 271 271 271 272 272 272 270 270 270 271 272 273 274 274 274 273 272 271 272 271 271 271 271 272 272 272
273 273 273 273 274 272 272 271 271 271 270 269 270 270 271 271 271 272 272 272 272 272 272 272 270 270 271 272 273 274 274 275 274 272 271 272 272 271 271 271 271 272 272
272 273 273 273 272 272 271 271 270 270 269 270 270 271 271 272 272 272 272 272 272 273 273 273 272 271 271 272 272 274 274 274 272 272 271 272 271 271 271 270 271 271 272
Wind_Speed
15 12 9 8 7 7 8 8 9 11 12 14 15 16 16 16 16 16 17 17 17 18 19 19 20 19 20 19 19 21 23 24 22 35 31 28 31 37 43 38 34 27 26
15 14 11 9 8 8 8 9 10 12 13 14 16 17 17 18 18 20 21 19 18 18 18 18 20 19 20 21 23 24 25 26 30 36 32 31 31 31 34 38 45 41 38
18 16 13 10 8 8 8 9 10 12 13 14 16 17 19 20 21 20 18 19 20 21 23 24 25 25 25 24 24 26 26 27 31 35 38 34 35 31 31 34 36 38 42
20 19 15 11 8 8 8 9 10 12 13 15 17 19 20 22 22 22 20 22 23 23 24 27 29 28 30 30 30 31 30 31 31 35 38 35 33 33 33 32 31 31 35
21 20 17 11 10 8 8 9 10 11 13 16 18 20 20 21 18 19 21 22 23 25 26 28 29 31 32 34 35 33 33 34 33 33 37 34 34 30 34 29 32 31 36
23 23 16 13 10 8 8 9 10 11 13 15 17 19 20 20 18 20 22 25 26 26 27 28 31 35 38 40 43 46 47 41 42 37 38 36 39 37 34 32 33 28 16
23 22 18 14 12 9 8 9 9 10 12 14 16 18 20 22 20 20 21 24 25 26 29 31 34 35 36 39 43 48 54 57 62 54 48 48 40 40 33 34 33 31 33
22 22 19 16 13 9 9 9 8 8 11 13 16 19 20 23 19 20 22 24 25 28 30 33 36 38 37 40 44 48 50 55 61 62 64 62 53 45 41 39 35 31 34
22 23 22 19 15 12 11 8 6 6 8 12 16 19 20 22 20 20 21 25 24 28 30 33 35 37 38 39 44 47 51 55 51 57 65 67 62 55 47 40 39 34 24
22 24 22 19 17 14 11 8 6 5 9 12 16 18 19 23 23 20 22 23 24 26 29 29 31 34 37 38 43 44 48 54 49 49 50 63 66 61 56 55 36 30 29
21 20 19 20 18 14 10 9 7 6 10 12 16 18 21 23 24 21 22 24 24 26 27 27 28 32 37 39 39 45 59 65 52 49 46 47 47 53 53 54 58 42 27
20 19 19 20 18 15 12 10 9 6 9 13 17 19 21 25 23 21 24 22 25 25 26 27 29 32 33 35 35 42 35 35 42 39 38 40 41 43 46 51 51 54 46
18 20 21 20 18 15 13 12 11 7 8 12 15 16 20 25 25 22 24 24 25 26 26 26 27 29 30 31 34 37 31 16 27 33 30 28 33 34 37 40 45 50 49
19 20 22 21 18 14 12 10 10 6 6 10 13 14 18 22 25 25 25 26 27 27 27 27 26 26 28 33 35 37 35 33 12 18 21 25 27 30 33 36 36 38 40
19 21 23 21 17 14 10 9 7 4 6 8 10 13 14 18 22 23 22 22 26 25 24 24 26 31 33 35 36 36 37 35 30 23 17 23 27 31 33 36 38 32 32
18 20 23 20 16 12 9 6 3 1 0 4 7 9 10 13 18 20 20 18 23 24 26 26 27 30 29 32 33 34 35 35 33 27 20 11 23 28 31 35 37 36 29
19 21 20 18 15 11 9 7 7 3 2 5 7 8 10 12 15 18 19 17 20 29 25 25 26 29 29 30 33 35 34 34 31 28 23 20 16 11 28 27 32 33 30
20 17 21 17 13 12 10 8 7 5 3 5 8 10 9 11 13 16 18 18 22 27 24 24 25 27 29 30 32 34 35 35 35 31 27 24 21 14 11 4 18 23 26
18 18 17 16 13 12 11 9 8 8 6 4 7 11 11 10 12 15 19 22 18 21 23 24 25 26 28 29 30 29 32 34 34 32 31 28 25 22 24 22 22 19 16
16 16 18 17 14 14 12 10 9 8 7 6 7 8 10 12 18 19 21 23 23 23 25 23 26 26 27 28 30 27 29 31 32 34 32 33 32 32 31 32 30 24 19
14 15 16 15 14 14 13 10 9 9 8 6 5 8 8 10 11 14 17 19 21 23 24 27 28 27 28 29 31 31 26 30 31 30 32 34 33 33 32 30 27 24 20
14 11 16 15 14 13 13 10 8 8 8 7 6 7 7 9 10 12 14 16 18 20 23 26 27 29 30 30 31 30 26 25 31 33 32 33 35 36 32 28 26 25 26
10 14 15 15 14 11 12 10 7 6 6 6 6 6 6 8 9 11 13 15 17 19 20 23 26 27 29 30 32 31 25 23 30 32 32 32 31 31 29 27 27 26 26
6 9 13 15 14 13 12 10 7 4 3 4 5 5 5 6 8 10 12 14 17 18 19 19 20 23 24 28 32 32 28 24 30 30 31 31 29 30 27 26 26 28 28
6 8 11 13 12 14 11 10 8 4 1 2 3 3 3 6 9 13 15 16 17 18 19 18 17 19 21 23 28 29 30 27 26 27 29 29 29 32 32 32 28 25 27
5 7 9 10 13 13 12 10 7 5 3 2 1 2 4 7 11 13 16 18 18 17 20 21 17 16 18 22 24 25 28 27 29 25 23 25 28 27 30 30 28 27 25
Wind_Direction
229 229 240 255 268 286 300 309 312 315 318 319 319 316 314 312 311 307 303 300 293 292 289 282 278 276 266 264 261 253 250 248 259 275 273 276 277 277 270 269 270 270 268
230 229 235 243 261 281 300 306 309 311 312 316 317 315 313 310 306 301 298 291 284 281 280 275 273 277 268 263 258 253 252 251 256 273 273 273 268 268 272 274 271 270 262
225 226 232 238 255 278 294 298 302 306 311 317 318 314 313 311 308 300 288 282 276 277 276 275 275 272 268 265 261 258 257 256 255 264 273 270 267 265 264 263 261 264 265
222 221 227 236 252 271 284 291 299 307 316 321 319 315 312 310 304 297 285 282 279 278 277 276 272 270 265 264 261 258 257 255 254 257 266 268 263 259 256 256 262 260 262
222 221 224 223 233 249 271 286 299 311 319 321 320 319 316 312 304 297 290 281 281 280 278 275 274 271 269 267 261 259 256 255 255 254 258 260 257 252 242 244 252 260 264
222 224 222 219 229 248 270 282 297 313 321 323 325 323 319 317 306 299 294 290 285 282 283 282 278 276 272 270 268 265 259 251 249 249 252 251 251 247 246 238 241 244 253
223 222 219 218 226 244 268 279 301 316 322 328 329 327 322 322 316 307 301 296 289 285 284 284 282 277 276 272 268 267 262 255 249 245 245 247 248 246 248 243 235 234 241
223 222 220 218 223 238 259 276 300 315 331 337 335 335 329 327 322 314 307 301 291 287 285 286 284 283 281 278 274 267 260 254 249 247 246 247 246 243 246 245 242 245 255
226 223 220 215 217 229 250 267 284 309 335 341 340 344 337 333 332 319 313 309 299 293 293 291 291 288 285 283 277 273 269 263 257 251 246 247 245 240 236 242 238 236 242
236 231 222 214 216 222 240 253 258 304 334 343 343 345 344 340 340 327 321 316 307 305 304 302 300 295 295 289 281 276 271 265 258 251 250 244 241 239 231 233 242 231 230
246 240 224 215 217 224 230 240 239 286 319 339 346 346 351 349 338 332 328 327 322 319 317 312 308 307 304 301 294 287 273 265 251 250 245 240 236 233 230 228 234 242 238
244 231 219 214 211 219 227 233 237 292 318 338 348 347 352 348 347 335 335 334 335 333 323 320 318 320 321 322 319 309 303 281 229 240 241 238 223 221 223 224 228 236 240
228 223 214 204 207 216 221 231 244 273 314 333 343 347 344 347 345 340 343 344 345 342 337 332 335 337 341 341 341 347 0 258 230 235 229 216 211 217 220 223 228 233 239
225 217 204 197 201 208 214 229 247 248 300 324 342 351 346 345 344 350 352 352 350 351 344 346 349 350 357 359 354 2 5 0 271 217 214 214 213 216 220 219 225 223 225
221 210 197 195 197 200 207 223 232 247 293 325 341 355 350 347 352 353 356 359 360 358 355 357 354 3 2 358 357 2 9 3 355 338 242 222 223 223 224 221 219 226 216
206 192 187 188 190 193 190 194 191 201 29 349 351 356 3 355 358 2 7 11 10 13 15 7 358 4 2 356 358 1 5 2 354 349 340 296 240 232 229 224 217 213 220
191 181 171 179 183 180 179 181 167 123 84 32 15 15 11 7 8 8 13 17 21 27 15 9 3 0 0 356 0 4 0 357 355 357 351 351 346 306 235 235 211 217 214
184 174 172 173 177 178 178 174 158 130 94 38 39 26 20 20 23 20 20 31 19 26 15 8 2 357 358 358 1 2 1 360 1 360 0 5 8 9 24 47 214 214 212
165 171 174 172 176 175 173 166 153 131 111 69 42 30 26 31 40 36 33 31 15 16 11 7 4 359 360 358 357 3 6 6 1 2 4 7 14 26 35 33 47 54 74
180 175 171 169 167 170 169 161 147 134 119 91 61 36 33 54 46 39 37 30 26 19 20 12 13 6 8 8 4 359 8 9 7 5 8 10 13 24 30 31 31 38 43
166 166 158 165 176 176 169 162 145 129 119 105 83 60 56 57 40 36 31 30 29 26 27 25 24 22 18 21 18 10 4 8 9 12 13 13 18 24 27 32 32 35 35
163 154 156 167 176 168 164 157 143 125 116 109 106 89 71 66 45 33 31 25 27 30 26 26 29 30 29 24 19 16 13 15 15 12 14 19 20 21 22 27 30 28 35
144 152 155 166 173 165 158 156 149 133 115 107 111 100 78 63 54 39 30 28 23 22 25 26 24 27 29 28 26 18 14 22 25 25 26 22 22 21 18 24 28 30 29
141 153 158 160 165 167 163 159 149 137 113 108 113 105 84 59 35 28 24 21 22 20 18 19 22 24 27 27 25 22 17 17 23 22 28 33 29 26 28 29 24 27 28
148 152 158 162 164 160 160 162 160 170 165 127 106 98 72 26 13 8 6 5 8 13 16 11 12 20 26 30 25 22 17 17 22 19 23 29 33 28 30 30 32 29 35
123 141 151 159 159 161 162 161 164 171 177 169 107 28 7 354 353 351 350 349 349 354 359 3 5 8 17 26 26 16 19 23 18 12 21 29 29 30 30 31 33 34 36